AFL059 ULLI-UUEE

Flight info

Callsign AFL059
Flight time 1h 2m
Altitude 31000
Route N0450F310 SUGIN T873 NIRGI T73 NAMIN
Aircraft A321/M-VGDW/C

Departure

Time 2026-05-04 13:05
Airport Pulkovo Airport (ULLI)

Arrival

Time 2026-05-04 14:07
Airport Sheremetyevo International Airport (UUEE)
Time Latitude Longitude Altitude Speed Heading
2026-05-04 12:36 59.79635 30.26595 94 ft 0 kts 95°
2026-05-04 12:53 59.79635 30.26593 94 ft 2 kts 95°
2026-05-04 12:54 59.79636 30.26562 94 ft 2 kts 96°
2026-05-04 12:54 59.79638 30.26531 94 ft 2 kts 96°
2026-05-04 12:54 59.79640 30.26500 94 ft 2 kts 96°
2026-05-04 12:54 59.79642 30.26468 94 ft 2 kts 95°
2026-05-04 12:55 59.79640 30.26442 94 ft 2 kts 54°
2026-05-04 12:55 59.79629 30.26425 94 ft 2 kts 17°
2026-05-04 12:55 59.79624 30.26422 94 ft 0 kts 15°
2026-05-04 12:56 59.79625 30.26422 94 ft 1 kts 15°
2026-05-04 12:57 59.79647 30.26435 94 ft 5 kts 15°
2026-05-04 12:57 59.79693 30.26462 94 ft 9 kts 16°
2026-05-04 12:57 59.79764 30.26503 94 ft 12 kts 16°
2026-05-04 12:57 59.79855 30.26557 94 ft 15 kts 16°
2026-05-04 12:58 59.79956 30.26618 94 ft 16 kts 17°
2026-05-04 12:58 59.80065 30.26684 94 ft 17 kts 17°
2026-05-04 12:58 59.80183 30.26753 94 ft 18 kts 16°
2026-05-04 12:58 59.80310 30.26827 94 ft 20 kts 16°
2026-05-04 12:59 59.80383 30.26954 94 ft 15 kts 99°
2026-05-04 12:59 59.80353 30.27166 94 ft 16 kts 107°
2026-05-04 12:59 59.80319 30.27391 94 ft 18 kts 107°
2026-05-04 12:59 59.80282 30.27632 94 ft 19 kts 107°
2026-05-04 13:00 59.80243 30.27887 94 ft 20 kts 107°
2026-05-04 13:00 59.80206 30.28125 94 ft 16 kts 107°
2026-05-04 13:00 59.80175 30.28350 94 ft 17 kts 104°
2026-05-04 13:00 59.80141 30.28591 94 ft 19 kts 107°
2026-05-04 13:01 59.80102 30.28848 94 ft 20 kts 107°
2026-05-04 13:01 59.80060 30.29123 94 ft 21 kts 107°
2026-05-04 13:01 59.80019 30.29400 94 ft 19 kts 106°
2026-05-04 13:01 59.79985 30.29635 94 ft 17 kts 106°
2026-05-04 13:02 59.79951 30.29862 94 ft 10 kts 107°
2026-05-04 13:02 59.79941 30.30003 94 ft 10 kts 73°
2026-05-04 13:02 59.79956 30.30051 94 ft 0 kts 52°
2026-05-04 13:03 59.79959 30.30059 94 ft 3 kts 50°
2026-05-04 13:03 59.79982 30.30112 94 ft 6 kts 47°
2026-05-04 13:03 59.80014 30.30180 94 ft 7 kts 47°
2026-05-04 13:04 59.80053 30.30258 94 ft 9 kts 32°
2026-05-04 13:04 59.80114 30.30254 94 ft 10 kts 320°
2026-05-04 13:04 59.80192 30.29787 94 ft 72 kts 286°
2026-05-04 13:04 59.80403 30.28390 94 ft 137 kts 285°
2026-05-04 13:05 59.80736 30.26354 384 ft 158 kts 286°
2026-05-04 13:05 59.81038 30.24296 1188 ft 154 kts 282°
2026-05-04 13:05 59.81332 30.22271 1689 ft 154 kts 282°
2026-05-04 13:05 59.81634 30.20207 2026 ft 156 kts 281°
2026-05-04 13:06 59.81939 30.18129 2382 ft 158 kts 280°
2026-05-04 13:06 59.82246 30.16032 2752 ft 158 kts 279°
2026-05-04 13:06 59.82557 30.13920 3104 ft 159 kts 279°
2026-05-04 13:06 59.82878 30.11707 3289 ft 177 kts 279°
2026-05-04 13:07 59.83239 30.09178 3380 ft 204 kts 280°
2026-05-04 13:07 59.83664 30.06251 3457 ft 237 kts 281°
2026-05-04 13:07 59.84095 30.03130 4342 ft 227 kts 274°
2026-05-04 13:07 59.83984 30.00077 5097 ft 222 kts 247°
2026-05-04 13:08 59.83152 29.97616 5793 ft 217 kts 219°
2026-05-04 13:08 59.81811 29.96290 6542 ft 218 kts 199°
2026-05-04 13:08 59.80357 29.95378 7231 ft 221 kts 200°
2026-05-04 13:08 59.78881 29.94468 7917 ft 223 kts 200°
2026-05-04 13:09 59.77392 29.93574 8591 ft 224 kts 200°
2026-05-04 13:09 59.75833 29.93043 9188 ft 235 kts 184°
2026-05-04 13:09 59.74218 29.93890 9783 ft 251 kts 159°
2026-05-04 13:09 59.72822 29.96242 10111 ft 283 kts 135°
2026-05-04 13:10 59.71870 29.99937 10211 ft 321 kts 114°
2026-05-04 13:10 59.71231 30.04374 10306 ft 347 kts 111°
2026-05-04 13:10 59.70572 30.09065 10466 ft 366 kts 111°
2026-05-04 13:10 59.69882 30.13931 11091 ft 369 kts 111°
2026-05-04 13:11 59.69314 30.18950 11627 ft 379 kts 104°
2026-05-04 13:11 59.69113 30.24221 12159 ft 389 kts 93°
2026-05-04 13:11 59.69235 30.29596 12775 ft 393 kts 90°
2026-05-04 13:11 59.69316 30.35021 13352 ft 393 kts 98°
2026-05-04 13:12 59.68874 30.40331 13914 ft 392 kts 106°
2026-05-04 13:12 59.68288 30.45613 14447 ft 395 kts 107°
2026-05-04 13:12 59.67684 30.50931 14983 ft 397 kts 107°
2026-05-04 13:12 59.67074 30.56290 15525 ft 400 kts 107°
2026-05-04 13:13 59.66459 30.61686 16012 ft 403 kts 107°
2026-05-04 13:13 59.65838 30.67124 16514 ft 406 kts 107°
2026-05-04 13:13 59.65303 30.72644 17024 ft 410 kts 103°
2026-05-04 13:13 59.64845 30.78149 17501 ft 413 kts 102°
2026-05-04 13:14 59.64382 30.83785 17966 ft 416 kts 102°
2026-05-04 13:14 59.63918 30.89440 18490 ft 418 kts 102°
2026-05-04 13:14 59.63450 30.95137 18931 ft 421 kts 102°
2026-05-04 13:14 59.62977 31.00872 19407 ft 423 kts 102°
2026-05-04 13:15 59.62500 31.06626 19885 ft 425 kts 102°
2026-05-04 13:15 59.62019 31.12417 20307 ft 428 kts 102°
2026-05-04 13:15 59.61533 31.18243 20746 ft 431 kts 102°
2026-05-04 13:15 59.61044 31.24085 21183 ft 433 kts 102°
2026-05-04 13:16 59.60548 31.29980 21543 ft 436 kts 102°
2026-05-04 13:16 59.60049 31.35895 21965 ft 438 kts 102°
2026-05-04 13:16 59.59545 31.41850 22348 ft 441 kts 102°
2026-05-04 13:16 59.59038 31.47814 22787 ft 441 kts 102°
2026-05-04 13:17 59.58534 31.53729 23119 ft 444 kts 102°
2026-05-04 13:17 59.58017 31.59759 23491 ft 446 kts 102°
2026-05-04 13:17 59.57497 31.65815 23837 ft 448 kts 102°
2026-05-04 13:17 59.56974 31.71892 24177 ft 450 kts 102°
2026-05-04 13:18 59.56446 31.78003 24485 ft 453 kts 102°
2026-05-04 13:18 59.55912 31.84144 24814 ft 455 kts 102°
2026-05-04 13:18 59.55374 31.90299 25094 ft 458 kts 102°
2026-05-04 13:18 59.54828 31.96503 25405 ft 459 kts 102°
2026-05-04 13:19 59.54246 32.02719 25667 ft 461 kts 107°
2026-05-04 13:19 59.53591 32.06685 25832 ft 459 kts 116°
2026-05-04 13:19 59.51472 32.13878 26199 ft 451 kts 133°
2026-05-04 13:19 59.49375 32.18321 26493 ft 447 kts 140°
2026-05-04 13:20 59.47173 32.22668 26740 ft 449 kts 140°
2026-05-04 13:20 59.44960 32.27016 26997 ft 451 kts 140°
2026-05-04 13:20 59.42733 32.31383 27242 ft 453 kts 140°
2026-05-04 13:20 59.40501 32.35754 27483 ft 454 kts 140°
2026-05-04 13:21 59.38255 32.40145 27716 ft 456 kts 140°
2026-05-04 13:21 59.36005 32.44539 27951 ft 457 kts 140°
2026-05-04 13:21 59.33748 32.48938 28175 ft 458 kts 140°
2026-05-04 13:21 59.31481 32.53349 28399 ft 460 kts 140°
2026-05-04 13:22 59.29203 32.57774 28620 ft 461 kts 140°
2026-05-04 13:22 59.26920 32.62200 28830 ft 462 kts 140°
2026-05-04 13:22 59.24631 32.66631 28987 ft 465 kts 140°
2026-05-04 13:22 59.22327 32.71083 29229 ft 465 kts 140°
2026-05-04 13:23 59.20024 32.75525 29420 ft 467 kts 140°
2026-05-04 13:23 59.17706 32.79988 29607 ft 468 kts 140°
2026-05-04 13:23 59.15384 32.84450 29778 ft 469 kts 141°
2026-05-04 13:23 59.13052 32.88922 29969 ft 470 kts 141°
2026-05-04 13:24 59.10719 32.93387 30170 ft 471 kts 140°
2026-05-04 13:24 59.08376 32.97862 30288 ft 474 kts 140°
2026-05-04 13:24 59.06060 33.02279 30487 ft 470 kts 140°
2026-05-04 13:25 59.01373 33.11190 30704 ft 475 kts 141°
2026-05-04 13:25 58.99008 33.15674 30717 ft 474 kts 141°
2026-05-04 13:25 58.94279 33.24611 30724 ft 474 kts 140°
2026-05-04 13:26 58.89520 33.33440 30727 ft 473 kts 141°
2026-05-04 13:26 58.84731 33.42189 30731 ft 473 kts 141°
2026-05-04 13:27 58.79951 33.50940 30734 ft 473 kts 141°
2026-05-04 13:27 58.75212 33.59623 30737 ft 473 kts 141°
2026-05-04 13:28 58.70446 33.68352 30740 ft 472 kts 141°
2026-05-04 13:28 58.65689 33.77053 30744 ft 472 kts 141°
2026-05-04 13:29 58.61701 33.84336 30746 ft 472 kts 141°
2026-05-04 13:29 58.56945 33.93002 30750 ft 472 kts 141°
2026-05-04 13:30 58.52209 34.01610 30753 ft 471 kts 141°
2026-05-04 13:30 58.47436 34.10255 30756 ft 472 kts 141°
2026-05-04 13:31 58.42669 34.18865 30773 ft 471 kts 141°
2026-05-04 13:31 58.37895 34.27458 30814 ft 472 kts 141°
2026-05-04 13:32 58.33118 34.36026 30819 ft 472 kts 141°
2026-05-04 13:32 58.28336 34.44571 30821 ft 472 kts 141°
2026-05-04 13:33 58.23536 34.53117 30823 ft 472 kts 141°
2026-05-04 13:33 58.18645 34.61408 30825 ft 470 kts 145°
2026-05-04 13:34 58.13585 34.69261 30826 ft 470 kts 145°
2026-05-04 13:34 58.08553 34.77085 30828 ft 472 kts 145°
2026-05-04 13:35 58.00950 34.88935 30831 ft 472 kts 145°
2026-05-04 13:36 57.95893 34.96813 30832 ft 470 kts 144°
2026-05-04 13:36 57.90883 35.04620 30834 ft 471 kts 144°
2026-05-04 13:37 57.85831 35.12486 30836 ft 472 kts 144°
2026-05-04 13:37 57.80760 35.20364 30838 ft 472 kts 144°
2026-05-04 13:38 57.75691 35.28220 30840 ft 472 kts 144°
2026-05-04 13:38 57.70607 35.36077 30841 ft 474 kts 144°
2026-05-04 13:39 57.65518 35.43917 30843 ft 474 kts 144°
2026-05-04 13:39 57.60426 35.51732 30813 ft 471 kts 144°
2026-05-04 13:39 57.57926 35.55505 30080 ft 470 kts 145°
2026-05-04 13:40 57.55391 35.59311 29666 ft 463 kts 145°
2026-05-04 13:40 57.52888 35.63073 28958 ft 462 kts 145°
2026-05-04 13:40 57.50409 35.66801 28423 ft 456 kts 145°
2026-05-04 13:40 57.47945 35.70507 27907 ft 452 kts 144°
2026-05-04 13:41 57.45507 35.74177 27258 ft 450 kts 144°
2026-05-04 13:41 57.43090 35.77814 26721 ft 445 kts 144°
2026-05-04 13:41 57.40685 35.81427 26227 ft 441 kts 144°
2026-05-04 13:42 57.35987 35.88475 25382 ft 427 kts 144°
2026-05-04 13:42 57.33688 35.91915 24990 ft 421 kts 144°
2026-05-04 13:42 57.31430 35.95289 24605 ft 415 kts 144°
2026-05-04 13:42 57.29199 35.98616 24227 ft 409 kts 144°
2026-05-04 13:43 57.27027 36.01851 23858 ft 403 kts 144°
2026-05-04 13:43 57.24856 36.05081 23491 ft 398 kts 144°
2026-05-04 13:43 57.22711 36.08270 23130 ft 393 kts 144°
2026-05-04 13:43 57.20593 36.11414 22773 ft 389 kts 144°
2026-05-04 13:44 57.18496 36.14525 22420 ft 385 kts 144°
2026-05-04 13:44 57.16422 36.17598 22074 ft 381 kts 144°
2026-05-04 13:44 57.14366 36.20641 21730 ft 377 kts 144°
2026-05-04 13:44 57.12329 36.23650 21391 ft 373 kts 144°
2026-05-04 13:45 57.10311 36.26630 21055 ft 370 kts 144°
2026-05-04 13:45 57.08311 36.29578 20725 ft 366 kts 144°
2026-05-04 13:45 57.06327 36.32499 20404 ft 363 kts 144°
2026-05-04 13:45 57.04365 36.35384 20081 ft 360 kts 144°
2026-05-04 13:46 57.02424 36.38174 19763 ft 358 kts 146°
2026-05-04 13:46 57.00458 36.40971 19444 ft 356 kts 146°
2026-05-04 13:46 56.98508 36.43757 19127 ft 354 kts 145°
2026-05-04 13:46 56.96574 36.46527 18813 ft 352 kts 145°
2026-05-04 13:47 56.94653 36.49284 18502 ft 350 kts 145°
2026-05-04 13:47 56.92736 36.52037 18191 ft 349 kts 145°
2026-05-04 13:47 56.90833 36.54770 17883 ft 347 kts 145°
2026-05-04 13:47 56.88933 36.57496 17578 ft 346 kts 145°
2026-05-04 13:48 56.87041 36.60224 17277 ft 345 kts 145°
2026-05-04 13:48 56.85162 36.62937 16975 ft 344 kts 145°
2026-05-04 13:48 56.83289 36.65642 16669 ft 342 kts 144°
2026-05-04 13:48 56.81425 36.68331 16368 ft 341 kts 144°
2026-05-04 13:49 56.79569 36.71010 16068 ft 340 kts 144°
2026-05-04 13:49 56.77719 36.73676 15768 ft 338 kts 144°
2026-05-04 13:49 56.75875 36.76331 15469 ft 337 kts 144°
2026-05-04 13:49 56.74034 36.78978 15171 ft 336 kts 144°
2026-05-04 13:50 56.72222 36.81586 14959 ft 343 kts 144°
2026-05-04 13:50 56.70422 36.84533 14722 ft 350 kts 138°
2026-05-04 13:50 56.68684 36.87654 14354 ft 350 kts 137°
2026-05-04 13:50 56.66965 36.90770 14037 ft 347 kts 137°
2026-05-04 13:51 56.65255 36.93873 13739 ft 346 kts 137°
2026-05-04 13:51 56.63558 36.96954 13437 ft 344 kts 137°
2026-05-04 13:51 56.61874 37.00012 13141 ft 341 kts 137°
2026-05-04 13:51 56.60206 37.03047 12850 ft 339 kts 136°
2026-05-04 13:52 56.56882 37.09075 12264 ft 336 kts 137°
2026-05-04 13:52 56.55225 37.12066 11975 ft 335 kts 137°
2026-05-04 13:52 56.53592 37.15008 11690 ft 334 kts 138°
2026-05-04 13:53 56.51754 37.17468 11509 ft 327 kts 153°
2026-05-04 13:53 56.49672 37.18963 11369 ft 315 kts 168°
2026-05-04 13:53 56.47554 37.19934 11257 ft 306 kts 169°
2026-05-04 13:54 56.43452 37.21723 10608 ft 302 kts 170°
2026-05-04 13:54 56.41409 37.22584 10292 ft 300 kts 171°
2026-05-04 13:54 56.37372 37.24256 9673 ft 294 kts 171°
2026-05-04 13:55 56.35384 37.25072 9409 ft 292 kts 171°
2026-05-04 13:55 56.31454 37.26675 8906 ft 288 kts 171°
2026-05-04 13:55 56.29511 37.27464 8654 ft 285 kts 171°
2026-05-04 13:56 56.27575 37.28249 8413 ft 285 kts 171°
2026-05-04 13:56 56.25643 37.29034 8167 ft 283 kts 170°
2026-05-04 13:56 56.21961 37.30826 7898 ft 262 kts 168°
2026-05-04 13:57 56.20241 37.31681 7733 ft 253 kts 168°
2026-05-04 13:57 56.18565 37.32690 7301 ft 257 kts 155°
2026-05-04 13:58 56.16594 37.41044 6284 ft 259 kts 75°
2026-05-04 13:58 56.17791 37.47120 5846 ft 257 kts 71°
2026-05-04 13:58 56.18334 37.50166 5644 ft 255 kts 72°
2026-05-04 13:59 56.18837 37.53168 5412 ft 254 kts 73°
2026-05-04 13:59 56.19291 37.56240 5178 ft 254 kts 81°
2026-05-04 13:59 56.18232 37.61956 4847 ft 246 kts 135°
2026-05-04 14:00 56.17001 37.64085 4728 ft 246 kts 139°
2026-05-04 14:00 56.14563 37.68367 4496 ft 245 kts 138°
2026-05-04 14:00 56.13362 37.70522 4383 ft 244 kts 137°
2026-05-04 14:01 56.12167 37.72683 4274 ft 244 kts 137°
2026-05-04 14:01 56.10977 37.74845 4161 ft 243 kts 137°
2026-05-04 14:01 56.08151 37.77566 3915 ft 224 kts 181°
2026-05-04 14:02 56.06710 37.76974 3710 ft 205 kts 205°
2026-05-04 14:02 56.05421 37.76023 3545 ft 198 kts 205°
2026-05-04 14:02 56.04146 37.75151 3371 ft 195 kts 204°
2026-05-04 14:02 56.02884 37.74264 3210 ft 193 kts 213°
2026-05-04 14:03 56.01983 37.72611 3069 ft 189 kts 243°
2026-05-04 14:03 56.01551 37.70458 3035 ft 181 kts 252°
2026-05-04 14:03 56.01200 37.68366 2787 ft 169 kts 254°
2026-05-04 14:03 56.00896 37.66431 2600 ft 155 kts 255°
2026-05-04 14:04 56.00351 37.62844 2417 ft 148 kts 255°
2026-05-04 14:04 56.00085 37.61075 2243 ft 147 kts 255°
2026-05-04 14:04 55.99820 37.59308 2075 ft 147 kts 256°
2026-05-04 14:05 55.99292 37.55777 1749 ft 148 kts 254°
2026-05-04 14:05 55.99025 37.54016 1583 ft 147 kts 255°
2026-05-04 14:05 55.98758 37.52246 1424 ft 148 kts 255°
2026-05-04 14:06 55.98492 37.50468 1255 ft 148 kts 255°
2026-05-04 14:06 55.98230 37.48716 1087 ft 147 kts 255°
2026-05-04 14:06 55.97968 37.46967 922 ft 145 kts 255°
2026-05-04 14:06 55.97706 37.45233 759 ft 145 kts 256°
2026-05-04 14:07 55.97447 37.43513 650 ft 138 kts 255°
2026-05-04 14:07 55.97261 37.42263 645 ft 67 kts 255°
2026-05-04 14:07 55.97160 37.41588 645 ft 41 kts 255°
2026-05-04 14:07 55.97179 37.41349 645 ft 15 kts 333°
2026-05-04 14:08 55.97284 37.41287 645 ft 16 kts 344°
2026-05-04 14:08 55.97399 37.41233 645 ft 18 kts 345°
2026-05-04 14:08 55.97523 37.41212 645 ft 19 kts 42°
2026-05-04 14:08 55.97569 37.41420 645 ft 17 kts 75°
2026-05-04 14:09 55.97702 37.41573 645 ft 16 kts 344°
2026-05-04 14:09 55.97809 37.41520 645 ft 13 kts 345°
2026-05-04 14:10 55.97959 37.41600 645 ft 9 kts 75°
2026-05-04 14:10 55.97962 37.41621 645 ft 0 kts 75°